Location: Bridalveil Moraine
(37.7171°N, 119.6568°W)
Time: 10:01:59
(UTC+00:00)

BlueWalker 3 - Pass Details

Date: 15 August 2024
Orbit: 476 x 487 km, 53.2° (Epoch: 07 September)

Event Time Altitude Azimuth Distance (km) Brightness Sun altitude
Rises 12:33:44 0° 323° (NW) 2,571 5.4 -8.4°
Reaches altitude 10° 12:36:56 10° 352° (N) 1,688 4.8 -7.8°
Maximum altitude 12:38:48 13° 21° (NNE) 1,502 5.0 -7.5°
Drops below altitude 10° 12:40:39 10° 50° (NE) 1,686 6.1 -7.1°
Sets 12:43:51 0° 79° (E) 2,564 7.6 -6.6°
